TimePDT,TemperatureF,Dew PointF,Humidity,Sea Level PressureIn,VisibilityMPH,Wind Direction,Wind SpeedMPH,Gust SpeedMPH,PrecipitationIn,Events,Conditions,WindDirDegrees,DateUTC
12:53 AM,62.1,37.9,41,29.85,10.0,SE,8.1,-,N/A,,Clear,140,2013-07-16 07:53:00
1:53 AM,57.9,37.9,47,29.85,10.0,SE,6.9,-,N/A,,Clear,130,2013-07-16 08:53:00
2:53 AM,61.0,39.9,46,29.85,10.0,SSE,6.9,-,N/A,,Clear,150,2013-07-16 09:53:00
3:53 AM,55.0,37.0,51,29.86,10.0,NW,5.8,-,N/A,,Clear,310,2013-07-16 10:53:00
4:53 AM,57.9,39.0,49,29.86,10.0,SW,3.5,-,N/A,,Clear,220,2013-07-16 11:53:00
5:53 AM,55.0,39.0,55,29.88,10.0,South,5.8,-,N/A,,Clear,170,2013-07-16 12:53:00
6:53 AM,62.1,39.0,43,29.88,10.0,Calm,Calm,-,N/A,,Clear,0,2013-07-16 13:53:00
7:53 AM,64.0,41.0,43,29.87,10.0,North,5.8,-,N/A,,Clear,10,2013-07-16 14:53:00
8:53 AM,66.0,42.1,42,29.92,10.0,South,11.5,-,N/A,,Clear,190,2013-07-16 15:53:00
9:53 AM,68.0,42.1,39,29.86,10.0,North,9.2,-,0.00,,Partly Cloudy,360,2013-07-16 16:53:00
10:53 AM,69.1,41.0,36,29.85,10.0,North,6.9,-,N/A,,Partly Cloudy,350,2013-07-16 17:53:00
11:53 AM,71.1,43.0,36,29.83,10.0,North,8.1,-,N/A,,Partly Cloudy,350,2013-07-16 18:53:00
12:53 PM,77.0,43.0,30,29.82,10.0,Variable,4.6,-,N/A,,Clear,0,2013-07-16 19:53:00
1:53 PM,81.0,42.1,25,29.80,10.0,Calm,Calm,-,N/A,,Clear,0,2013-07-16 20:53:00
2:53 PM,86.0,41.0,20,29.79,10.0,West,10.4,-,0.00,,Clear,260,2013-07-16 21:53:00
3:53 PM,87.1,42.1,21,29.77,10.0,Calm,Calm,-,N/A,,Clear,0,2013-07-16 22:53:00
4:53 PM,86.0,39.0,19,29.75,10.0,North,8.1,-,N/A,,Clear,360,2013-07-16 23:53:00
5:53 PM,89.1,43.0,20,29.74,10.0,NW,10.4,-,N/A,,Clear,320,2013-07-17 00:53:00
6:53 PM,86.0,41.0,20,29.74,10.0,NNW,6.9,-,N/A,,Clear,330,2013-07-17 01:53:00
7:53 PM,82.9,42.1,24,29.76,10.0,West,4.6,-,N/A,,Clear,260,2013-07-17 02:53:00
8:53 PM,78.1,42.1,28,29.76,10.0,WSW,9.2,-,N/A,,Clear,240,2013-07-17 03:53:00
9:53 PM,71.1,52.0,51,29.76,10.0,West,9.2,-,0.05,,Clear,260,2013-07-17 04:53:00
10:53 PM,70.0,54.0,57,29.78,10.0,SW,8.1,-,N/A,,Clear,220,2013-07-17 05:53:00
11:53 PM,69.1,52.0,54,29.80,10.0,SSE,9.2,-,N/A,,Clear,160,2013-07-17 06:53:00